| time (UTC) | temp F | wind direction | speed MPH | gust MPH | rain 1hr in | rain 24hr in | rain mn in | humidity % | barometer mb |
| 20260506022103 | 47 | 114 | 0.0 | 2.0 | 0.00 | 0.08 | 0.00 | 83 | 1009.8 |
| 20260506020056 | 47 | 114 | 1.0 | 2.0 | 0.00 | 0.08 | 0.00 | 82 | 1009.9 |
| 20260506015058 | 48 | 114 | 1.0 | 2.0 | 0.00 | 0.08 | 0.00 | 82 | 1009.8 |
| 20260506014058 | 48 | 114 | 1.0 | 2.0 | 0.00 | 0.08 | 0.00 | 83 | 1010.0 |
| 20260506013056 | 48 | 114 | 0.0 | 0.0 | 0.00 | 0.08 | 0.00 | 83 | 1010.1 |
| 20260506011058 | 48 | 114 | 2.0 | 4.0 | 0.00 | 0.08 | 0.00 | 82 | 1010.3 |
| 20260506005056 | 49 | 114 | 2.0 | 3.0 | 0.00 | 0.08 | 0.00 | 81 | 1010.6 |
| 20260506004052 | 49 | 114 | 2.0 | 3.0 | 0.00 | 0.08 | 0.00 | 82 | 1010.7 |
| 20260506003050 | 49 | 141 | 2.0 | 3.0 | 0.00 | 0.08 | 0.00 | 82 | 1010.9 |
| 20260506002050 | 49 | 141 | 1.0 | 3.0 | 0.00 | 0.08 | 0.00 | 81 | 1011.2 |
| 20260506001052 | 49 | 141 | 1.0 | 3.0 | 0.00 | 0.08 | 0.00 | 81 | 1011.4 |
| 20260506000056 | 49 | 141 | 2.0 | 4.0 | 0.00 | 0.08 | 0.00 | 81 | 1011.5 |
| 20260505235050 | 50 | 141 | 0.0 | 2.0 | 0.00 | 0.08 | 0.00 | 80 | 1011.6 |
| 20260505234051 | 50 | 141 | 0.0 | 2.0 | 0.00 | 0.08 | 0.00 | 79 | 1011.6 |
| 20260505233050 | 51 | 141 | 0.0 | 0.0 | 0.00 | 0.08 | 0.00 | 78 | 1011.7 |
| 20260505231045 | 50 | 141 | 0.0 | 1.0 | 0.00 | 0.08 | 0.00 | 79 | 1011.8 |
| 20260505225044 | 50 | 141 | 0.0 | 0.0 | 0.00 | 0.08 | 0.00 | 78 | 1011.9 |
| 20260505224044 | 50 | 141 | 0.0 | 2.0 | 0.00 | 0.08 | 0.00 | 78 | 1012.0 |
| 20260505223043 | 50 | 141 | 0.0 | 0.0 | 0.00 | 0.08 | 0.00 | 78 | 1012.0 |
| 20260505220044 | 51 | 141 | 0.0 | 2.0 | 0.00 | 0.08 | 0.00 | 77 | 1011.7 |
| 20260505215045 | 51 | 141 | 0.0 | 1.0 | 0.00 | 0.08 | 0.08 | 77 | 1011.8 |
| 20260505213038 | 51 | 141 | 0.0 | 2.0 | 0.00 | 0.08 | 0.08 | 79 | 1011.9 |
| 20260505212037 | 51 | 141 | 3.0 | 4.0 | 0.00 | 0.08 | 0.08 | 79 | 1011.8 |
| 20260505211036 | 51 | 137 | 4.0 | 7.0 | 0.00 | 0.08 | 0.08 | 79 | 1012.0 |
| 20260505210036 | 50 | 138 | 4.0 | 7.0 | 0.00 | 0.08 | 0.08 | 79 | 1012.1 |
| 20260505205035 | 51 | 148 | 4.0 | 7.0 | 0.00 | 0.08 | 0.08 | 79 | 1012.2 |
| 20260505204033 | 50 | 156 | 0.0 | 2.0 | 0.00 | 0.08 | 0.08 | 79 | 1012.3 |
| 20260505203035 | 50 | 155 | 2.0 | 3.0 | 0.00 | 0.08 | 0.08 | 80 | 1012.1 |
| 20260505202035 | 50 | 155 | 1.0 | 2.0 | 0.00 | 0.08 | 0.08 | 80 | 1012.1 |
| 20260505201033 | 50 | 156 | 3.0 | 6.0 | 0.00 | 0.08 | 0.08 | 78 | 1011.9 |
| 20260505200033 | 51 | 155 | 1.0 | 5.0 | 0.00 | 0.08 | 0.08 | 77 | 1011.8 |
| 20260505195039 | 51 | 156 | 2.0 | 6.0 | 0.00 | 0.08 | 0.08 | 77 | 1011.9 |
| 20260505194032 | 51 | 155 | 5.0 | 6.0 | 0.00 | 0.08 | 0.08 | 77 | 1011.7 |
| 20260505193032 | 51 | 169 | 2.0 | 5.0 | 0.00 | 0.08 | 0.08 | 76 | 1011.6 |
| 20260505192034 | 52 | 169 | 0.0 | 2.0 | 0.00 | 0.08 | 0.08 | 75 | 1011.6 |
| 20260505191032 | 52 | 169 | 3.0 | 5.0 | 0.00 | 0.08 | 0.08 | 75 | 1011.4 |
| 20260505190042 | 52 | 169 | 1.0 | 4.0 | 0.00 | 0.08 | 0.08 | 74 | 1011.4 |
| 20260505185032 | 53 | 169 | 3.0 | 6.0 | 0.00 | 0.08 | 0.08 | 73 | 1011.3 |
| 20260505184028 | 53 | 163 | 3.0 | 6.0 | 0.00 | 0.08 | 0.08 | 73 | 1011.2 |
| 20260505183028 | 54 | 163 | 3.0 | 6.0 | 0.00 | 0.08 | 0.08 | 73 | 1011.0 |
| 20260505182030 | 54 | 207 | 3.0 | 8.0 | 0.00 | 0.08 | 0.08 | 72 | 1011.0 |
| 20260505181029 | 55 | 183 | 4.0 | 6.0 | 0.00 | 0.08 | 0.08 | 72 | 1011.0 |
| 20260505180026 | 55 | 193 | 3.0 | 6.0 | 0.00 | 0.08 | 0.08 | 72 | 1011.0 |
| 20260505175026 | 56 | 232 | 4.0 | 10.0 | 0.00 | 0.08 | 0.08 | 71 | 1011.0 |
| 20260505174027 | 56 | 215 | 4.0 | 10.0 | 0.00 | 0.08 | 0.08 | 71 | 1011.2 |
| 20260505173025 | 55 | 282 | 7.0 | 11.0 | 0.00 | 0.08 | 0.08 | 71 | 1011.2 |
| 20260505172026 | 55 | 280 | 10.0 | 16.0 | 0.00 | 0.08 | 0.08 | 71 | 1011.0 |
| 20260505171025 | 55 | 280 | 8.0 | 15.0 | 0.00 | 0.08 | 0.08 | 72 | 1011.2 |
| 20260505170027 | 55 | 285 | 2.0 | 8.0 | 0.00 | 0.08 | 0.08 | 76 | 1011.3 |
| 20260505165026 | 56 | 232 | 1.0 | 3.0 | 0.00 | 0.08 | 0.08 | 75 | 1011.2 |
| 20260505164024 | 56 | 245 | 1.0 | 3.0 | 0.00 | 0.08 | 0.08 | 75 | 1011.3 |
| 20260505163022 | 57 | 245 | 1.0 | 4.0 | 0.00 | 0.08 | 0.08 | 75 | 1011.3 |
| 20260505162022 | 57 | 230 | 1.0 | 3.0 | 0.00 | 0.08 | 0.08 | 76 | 1011.3 |
| 20260505161023 | 55 | 207 | 1.0 | 3.0 | 0.00 | 0.08 | 0.08 | 78 | 1011.0 |
| 20260505153019 | 54 | 228 | 5.0 | 11.0 | 0.00 | 0.08 | 0.08 | 78 | 1010.9 |
| 20260505152020 | 54 | 269 | 9.0 | 16.0 | 0.00 | 0.08 | 0.08 | 77 | 1011.0 |
| 20260505125020 | 54 | 251 | 5.0 | 13.0 | 0.00 | 0.17 | 0.08 | 79 | 1011.3 |
| 20260505123014 | 55 | 291 | 5.0 | 9.0 | 0.00 | 0.17 | 0.08 | 79 | 1011.2 |
| 20260505122015 | 55 | 291 | 5.0 | 9.0 | 0.00 | 0.17 | 0.08 | 79 | 1011.0 |
| 20260505121013 | 55 | 288 | 6.0 | 9.0 | 0.00 | 0.17 | 0.08 | 78 | 1011.2 |
| 20260505120015 | 55 | 285 | 7.0 | 9.0 | 0.00 | 0.17 | 0.08 | 78 | 1011.0 |
| 20260505115014 | 56 | 272 | 5.0 | 9.0 | 0.00 | 0.17 | 0.08 | 78 | 1011.0 |
| 20260505114014 | 56 | 254 | 3.0 | 7.0 | 0.00 | 0.17 | 0.08 | 78 | 1011.0 |
| 20260505113014 | 55 | 248 | 4.0 | 9.0 | 0.00 | 0.17 | 0.08 | 79 | 1011.2 |
| 20260505112014 | 55 | 273 | 4.0 | 7.0 | 0.00 | 0.17 | 0.08 | 79 | 1011.2 |
| 20260505111028 | 54 | 275 | 4.0 | 7.0 | 0.00 | 0.17 | 0.08 | 80 | 1011.2 |
| 20260505101011 | 53 | 261 | 3.0 | 6.0 | 0.01 | 0.17 | 0.08 | 82 | 1011.2 |
| 20260505100011 | 53 | 258 | 3.0 | 6.0 | 0.01 | 0.17 | 0.08 | 82 | 1011.2 |
| 20260505095012 | 53 | 277 | 2.0 | 3.0 | 0.01 | 0.17 | 0.08 | 81 | 1011.0 |
| 20260505094009 | 53 | 313 | 3.0 | 5.0 | 0.01 | 0.17 | 0.08 | 82 | 1011.3 |
| 20260505093007 | 53 | 318 | 3.0 | 5.0 | 0.01 | 0.17 | 0.08 | 82 | 1011.2 |
| 20260505092007 | 52 | 304 | 3.0 | 5.0 | 0.00 | 0.17 | 0.07 | 82 | 1011.0 |
| 20260505090005 | 52 | 297 | 3.0 | 5.0 | 0.00 | 0.17 | 0.07 | 82 | 1011.2 |
| 20260505085004 | 52 | 18 | 2.0 | 4.0 | 0.00 | 0.17 | 0.07 | 82 | 1011.3 |
| 20260505084004 | 52 | 14 | 1.0 | 4.0 | 0.00 | 0.17 | 0.07 | 82 | 1011.0 |
| 20260505083006 | 52 | 13 | 0.0 | 0.0 | 0.00 | 0.17 | 0.07 | 83 | 1010.7 |
| 20260505082004 | 52 | 153 | 0.0 | 0.0 | 0.00 | 0.17 | 0.07 | 84 | 1010.9 |
| 20260505080958 | 51 | 155 | 0.0 | 0.0 | 0.00 | 0.17 | 0.07 | 84 | 1010.9 |
| 20260505075957 | 51 | 211 | 0.0 | 0.0 | 0.00 | 0.17 | 0.07 | 84 | 1011.2 |
| 20260505074956 | 51 | 211 | 0.0 | 0.0 | 0.00 | 0.17 | 0.07 | 85 | 1011.2 |
| 20260505073956 | 51 | 211 | 0.0 | 0.0 | 0.00 | 0.17 | 0.07 | 85 | 1011.4 |
| 20260505072958 | 0 | 211 | 0.0 | 0.0 | 0.00 | 0.17 | 0.07 | 1011.5 | |
| 20260505071909 | 0 | 0.0 | 0.0 | 0.02 | 0.17 | 0.07 | 1011.6 | ||
| 20260505070910 | 0 | 0.0 | 0.0 | 0.02 | 0.17 | 0.07 | 1011.8 | ||
| 20260505065818 | 0 | 0.0 | 0.0 | 0.02 | 0.17 | 0.07 | 1011.9 | ||
| 20260505064809 | 49 | 211 | 0.0 | 0.0 | 0.03 | 0.17 | 0.07 | 85 | 1012.0 |
| 20260505063803 | 49 | 211 | 0.0 | 0.0 | 0.04 | 0.17 | 0.07 | 85 | 1012.1 |
| 20260505062801 | 49 | 211 | 0.0 | 0.0 | 0.05 | 0.17 | 0.07 | 85 | 1012.2 |
| 20260505061801 | 0 | 0.0 | 0.0 | 0.03 | 0.14 | 0.05 | 1012.3 | ||
| 20260505060718 | 49 | 211 | 0.0 | 0.0 | 0.04 | 0.14 | 0.05 | 85 | 1012.3 |
| 20260505055715 | 49 | 211 | 0.0 | 0.0 | 0.04 | 0.14 | 0.05 | 85 | 1012.5 |
| 20260505054705 | 49 | 211 | 0.0 | 0.0 | 0.03 | 0.13 | 0.04 | 85 | 1012.5 |
| 20260505052705 | 48 | 211 | 0.0 | 0.0 | 0.02 | 0.12 | 0.02 | 85 | 1012.4 |
| 20260505051707 | 48 | 268 | 0.0 | 0.0 | 0.01 | 0.11 | 0.02 | 85 | 1012.3 |
| 20260505050706 | 48 | 237 | 0.0 | 0.0 | 0.00 | 0.10 | 0.01 | 85 | 1012.4 |
| 20260505041703 | 48 | 155 | 0.0 | 1.0 | 0.00 | 0.10 | 0.01 | 85 | 1012.4 |
| 20260505035703 | 48 | 233 | 0.0 | 0.0 | 0.01 | 0.10 | 0.01 | 85 | 1012.2 |
| 20260505034702 | 48 | 232 | 0.0 | 1.0 | 0.01 | 0.10 | 0.01 | 85 | 1012.3 |
| 20260505033657 | 48 | 218 | 0.0 | 3.0 | 0.01 | 0.10 | 0.01 | 85 | 1012.5 |
| 20260505032657 | 48 | 218 | 0.0 | 3.0 | 0.01 | 0.10 | 0.01 | 85 | 1012.5 |
| 20260505031657 | 48 | 183 | 0.0 | 1.0 | 0.01 | 0.10 | 0.01 | 85 | 1012.6 |
| 20260505025656 | 48 | 232 | 0.0 | 2.0 | 0.00 | 0.09 | 0.00 | 85 | 1012.6 |
| 20260505024657 | 48 | 232 | 1.0 | 4.0 | 0.00 | 0.09 | 0.00 | 85 | 1012.6 |
| 20260505023657 | 48 | 239 | 0.0 | 2.0 | 0.00 | 0.09 | 0.00 | 85 | 1012.9 |